| time (UTC) | temp F | wind direction | speed MPH | gust MPH | rain 1hr in | rain 24hr in | rain mn in | humidity % | barometer mb |
| 20260510043312 | 52 | 4 | 1.0 | 2.0 | 0.00 | 0.00 | 0.00 | 99 | 1008.9 |
| 20260510042809 | 52 | 60 | 1.0 | 2.0 | 0.00 | 0.00 | 0.00 | 99 | 1008.7 |
| 20260510042306 | 51 | 2 | 1.0 | 2.0 | 0.00 | 0.00 | 0.00 | 99 | 1008.8 |
| 20260510041801 | 51 | 139 | 0.0 | 2.0 | 0.00 | 0.00 | 0.00 | 99 | 1008.6 |
| 20260510041259 | 52 | 112 | 2.0 | 2.0 | 0.00 | 0.00 | 0.00 | 99 | 1008.6 |
| 20260510040757 | 52 | 44 | 0.0 | 2.0 | 0.00 | 0.00 | 0.00 | 99 | 1008.8 |
| 20260510040248 | 52 | 177 | 1.0 | 3.0 | 0.00 | 0.00 | 0.00 | 99 | 1008.5 |
| 20260510035743 | 52 | 160 | 0.0 | 2.0 | 0.00 | 0.26 | 0.26 | 99 | 1008.6 |
| 20260510035239 | 52 | 225 | 0.0 | 2.0 | 0.00 | 0.26 | 0.26 | 99 | 1008.6 |
| 20260510034735 | 52 | 89 | 0.0 | 2.0 | 0.00 | 0.26 | 0.26 | 99 | 1008.6 |
| 20260510034233 | 52 | 142 | 0.0 | 1.0 | 0.00 | 0.26 | 0.26 | 99 | 1008.8 |
| 20260510033729 | 52 | 71 | 0.0 | 3.0 | 0.00 | 0.26 | 0.26 | 99 | 1008.6 |
| 20260510033227 | 52 | 40 | 1.0 | 2.0 | 0.00 | 0.26 | 0.26 | 99 | 1008.8 |
| 20260510032722 | 52 | 131 | 0.0 | 2.0 | 0.00 | 0.26 | 0.26 | 99 | 1008.8 |
| 20260510032218 | 52 | 127 | 1.0 | 2.0 | 0.00 | 0.26 | 0.26 | 99 | 1008.7 |
| 20260510031713 | 52 | 51 | 1.0 | 2.0 | 0.00 | 0.26 | 0.26 | 99 | 1008.5 |
| 20260510031210 | 52 | 130 | 0.0 | 2.0 | 0.00 | 0.26 | 0.26 | 99 | 1008.5 |
| 20260510030704 | 52 | 199 | 0.0 | 3.0 | 0.00 | 0.26 | 0.26 | 99 | 1008.7 |
| 20260510030202 | 53 | 174 | 2.0 | 3.0 | 0.00 | 0.26 | 0.26 | 99 | 1008.7 |
| 20260510025659 | 53 | 201 | 3.0 | 6.0 | 0.00 | 0.26 | 0.26 | 99 | 1008.9 |
| 20260510025156 | 53 | 177 | 3.0 | 6.0 | 0.00 | 0.26 | 0.26 | 99 | 1009.1 |
| 20260510024653 | 52 | 209 | 3.0 | 4.0 | 0.00 | 0.26 | 0.26 | 99 | 1009.1 |
| 20260510024149 | 52 | 6 | 0.0 | 2.0 | 0.00 | 0.26 | 0.26 | 99 | 1008.3 |
| 20260510023645 | 52 | 33 | 0.0 | 2.0 | 0.00 | 0.26 | 0.26 | 99 | 1008.3 |
| 20260510023143 | 52 | 82 | 1.0 | 2.0 | 0.00 | 0.26 | 0.26 | 99 | 1008.3 |
| 20260510022642 | 52 | 89 | 0.0 | 1.0 | 0.00 | 0.26 | 0.26 | 99 | 1008.4 |
| 20260510022138 | 52 | 230 | 0.0 | 1.0 | 0.00 | 0.26 | 0.26 | 99 | 1008.3 |
| 20260510021634 | 52 | 126 | 0.0 | 2.0 | 0.00 | 0.26 | 0.26 | 99 | 1008.3 |
| 20260510021131 | 51 | 49 | 0.0 | 1.0 | 0.00 | 0.26 | 0.26 | 99 | 1008.4 |
| 20260510020626 | 51 | 110 | 0.0 | 2.0 | 0.00 | 0.26 | 0.26 | 99 | 1008.3 |
| 20260510020121 | 51 | 118 | 1.0 | 2.0 | 0.00 | 0.26 | 0.26 | 99 | 1008.6 |
| 20260510015617 | 52 | 65 | 1.0 | 2.0 | 0.00 | 0.26 | 0.26 | 99 | 1008.6 |
| 20260510015114 | 52 | 117 | 0.0 | 1.0 | 0.00 | 0.26 | 0.26 | 99 | 1008.4 |
| 20260510014609 | 52 | 304 | 0.0 | 0.0 | 0.00 | 0.26 | 0.26 | 99 | 1008.4 |
| 20260510014107 | 52 | 164 | 0.0 | 2.0 | 0.00 | 0.26 | 0.26 | 99 | 1008.4 |
| 20260510013601 | 52 | 32 | 0.0 | 1.0 | 0.00 | 0.26 | 0.26 | 99 | 1008.3 |
| 20260510013058 | 52 | 195 | 0.0 | 2.0 | 0.00 | 0.26 | 0.26 | 99 | 1008.0 |
| 20260510012551 | 52 | 167 | 2.0 | 2.0 | 0.00 | 0.26 | 0.26 | 99 | 1008.2 |
| 20260510012049 | 53 | 123 | 2.0 | 3.0 | 0.00 | 0.26 | 0.26 | 99 | 1008.1 |
| 20260510011548 | 52 | 117 | 0.0 | 1.0 | 0.00 | 0.26 | 0.26 | 99 | 1008.0 |
| 20260510011044 | 53 | 54 | 0.0 | 2.0 | 0.00 | 0.26 | 0.26 | 99 | 1007.9 |
| 20260510010541 | 53 | 28 | 0.0 | 1.0 | 0.00 | 0.26 | 0.26 | 99 | 1007.9 |
| 20260510010038 | 53 | 32 | 0.0 | 1.0 | 0.00 | 0.26 | 0.26 | 99 | 1007.8 |
| 20260510005533 | 53 | 341 | 0.0 | 1.0 | 0.00 | 0.26 | 0.26 | 99 | 1007.9 |
| 20260510005031 | 53 | 229 | 0.0 | 1.0 | 0.00 | 0.26 | 0.26 | 99 | 1008.0 |
| 20260510004529 | 54 | 191 | 1.0 | 3.0 | 0.00 | 0.26 | 0.26 | 99 | 1007.8 |
| 20260510004027 | 54 | 184 | 2.0 | 4.0 | 0.00 | 0.26 | 0.26 | 99 | 1007.5 |
| 20260510003523 | 54 | 184 | 2.0 | 5.0 | 0.00 | 0.26 | 0.26 | 99 | 1007.8 |
| 20260510003019 | 54 | 194 | 2.0 | 3.0 | 0.00 | 0.26 | 0.26 | 99 | 1007.9 |
| 20260510002514 | 54 | 168 | 2.0 | 4.0 | 0.00 | 0.26 | 0.26 | 99 | 1007.9 |
| 20260510002011 | 54 | 192 | 3.0 | 4.0 | 0.00 | 0.26 | 0.26 | 99 | 1007.7 |
| 20260510001509 | 54 | 179 | 3.0 | 4.0 | 0.00 | 0.26 | 0.26 | 99 | 1007.8 |
| 20260510001006 | 54 | 185 | 3.0 | 4.0 | 0.00 | 0.26 | 0.26 | 99 | 1007.9 |
| 20260510000501 | 54 | 254 | 4.0 | 5.0 | 0.00 | 0.26 | 0.26 | 99 | 1007.8 |
| 20260509235958 | 54 | 209 | 2.0 | 3.0 | 0.00 | 0.26 | 0.26 | 99 | 1007.8 |
| 20260509235455 | 54 | 178 | 2.0 | 6.0 | 0.00 | 0.26 | 0.26 | 99 | 1007.7 |
| 20260509234951 | 54 | 183 | 3.0 | 4.0 | 0.00 | 0.26 | 0.26 | 99 | 1007.9 |
| 20260509234448 | 54 | 216 | 3.0 | 3.0 | 0.00 | 0.26 | 0.26 | 99 | 1007.9 |
| 20260509233946 | 54 | 196 | 3.0 | 4.0 | 0.00 | 0.26 | 0.26 | 99 | 1007.7 |
| 20260509233443 | 54 | 206 | 2.0 | 5.0 | 0.00 | 0.26 | 0.26 | 99 | 1007.7 |
| 20260509232939 | 54 | 206 | 0.0 | 3.0 | 0.02 | 0.26 | 0.26 | 99 | 1007.4 |
| 20260509232438 | 54 | 54 | 2.0 | 3.0 | 0.05 | 0.26 | 0.26 | 98 | 1007.4 |
| 20260509231933 | 54 | 138 | 3.0 | 5.0 | 0.07 | 0.26 | 0.26 | 98 | 1007.1 |
| 20260509231430 | 54 | 227 | 2.0 | 9.0 | 0.12 | 0.26 | 0.26 | 98 | 1007.7 |
| 20260509230928 | 54 | 110 | 2.0 | 6.0 | 0.19 | 0.25 | 0.25 | 97 | 1007.9 |
| 20260509230424 | 54 | 141 | 2.0 | 7.0 | 0.69 | 0.23 | 0.23 | 96 | 1007.8 |
| 20260509225920 | 54 | 179 | 2.0 | 6.0 | 0.87 | 0.20 | 0.20 | 95 | 1007.8 |
| 20260509225417 | 55 | 249 | 1.0 | 17.0 | 0.45 | 0.11 | 0.11 | 92 | 1007.7 |
| 20260509224913 | 57 | 29 | 3.0 | 13.0 | 0.09 | 0.05 | 0.05 | 81 | 1007.2 |
| 20260509224408 | 62 | 26 | 2.0 | 11.0 | 0.00 | 0.03 | 0.03 | 71 | 1007.0 |
| 20260509223906 | 66 | 267 | 2.0 | 4.0 | 0.00 | 0.03 | 0.03 | 60 | 1005.9 |
| 20260509223403 | 67 | 175 | 3.0 | 6.0 | 0.00 | 0.03 | 0.03 | 59 | 1005.5 |
| 20260509222900 | 67 | 194 | 6.0 | 14.0 | 0.00 | 0.03 | 0.03 | 57 | 1005.5 |
| 20260509222354 | 67 | 193 | 5.0 | 9.0 | 0.00 | 0.03 | 0.03 | 58 | 1005.1 |
| 20260509221850 | 67 | 204 | 7.0 | 11.0 | 0.00 | 0.03 | 0.03 | 59 | 1005.1 |
| 20260509221347 | 67 | 189 | 4.0 | 10.0 | 0.00 | 0.03 | 0.03 | 58 | 1005.3 |
| 20260509220843 | 67 | 167 | 10.0 | 12.0 | 0.00 | 0.03 | 0.03 | 58 | 1005.2 |
| 20260509220339 | 67 | 239 | 9.0 | 12.0 | 0.00 | 0.03 | 0.03 | 57 | 1005.2 |
| 20260509215835 | 68 | 193 | 8.0 | 14.0 | 0.00 | 0.03 | 0.03 | 57 | 1005.3 |
| 20260509215332 | 68 | 200 | 5.0 | 11.0 | 0.00 | 0.03 | 0.03 | 59 | 1005.1 |
| 20260509214829 | 68 | 187 | 5.0 | 11.0 | 0.00 | 0.03 | 0.03 | 59 | 1004.9 |
| 20260509214326 | 68 | 178 | 7.0 | 15.0 | 0.00 | 0.03 | 0.03 | 60 | 1004.9 |
| 20260509213823 | 68 | 241 | 7.0 | 14.0 | 0.00 | 0.03 | 0.03 | 59 | 1004.8 |
| 20260509213318 | 68 | 165 | 5.0 | 9.0 | 0.00 | 0.03 | 0.03 | 60 | 1004.6 |
| 20260509212816 | 70 | 163 | 4.0 | 15.0 | 0.00 | 0.03 | 0.03 | 57 | 1004.7 |
| 20260509212314 | 70 | 215 | 6.0 | 9.0 | 0.00 | 0.03 | 0.03 | 56 | 1004.9 |
| 20260509211809 | 69 | 204 | 11.0 | 18.0 | 0.00 | 0.03 | 0.03 | 56 | 1004.9 |
| 20260509211305 | 69 | 198 | 8.0 | 16.0 | 0.00 | 0.03 | 0.03 | 58 | 1005.0 |
| 20260509210802 | 69 | 172 | 11.0 | 15.0 | 0.00 | 0.03 | 0.03 | 57 | 1005.3 |
| 20260509210300 | 70 | 200 | 4.0 | 11.0 | 0.00 | 0.03 | 0.03 | 57 | 1005.0 |
| 20260509205759 | 70 | 256 | 13.0 | 17.0 | 0.00 | 0.03 | 0.03 | 55 | 1005.2 |
| 20260509205254 | 70 | 185 | 6.0 | 13.0 | 0.00 | 0.03 | 0.03 | 57 | 1005.3 |
| 20260509204750 | 69 | 230 | 12.0 | 12.0 | 0.00 | 0.03 | 0.03 | 57 | 1005.4 |
| 20260509204247 | 68 | 195 | 6.0 | 11.0 | 0.00 | 0.03 | 0.03 | 58 | 1005.5 |
| 20260509203743 | 69 | 217 | 6.0 | 20.0 | 0.00 | 0.03 | 0.03 | 56 | 1005.8 |
| 20260509203241 | 68 | 190 | 6.0 | 8.0 | 0.00 | 0.03 | 0.03 | 59 | 1005.8 |
| 20260509202736 | 68 | 263 | 8.0 | 9.0 | 0.00 | 0.03 | 0.03 | 57 | 1005.7 |
| 20260509202232 | 68 | 199 | 6.0 | 9.0 | 0.00 | 0.03 | 0.03 | 59 | 1005.9 |
| 20260509201727 | 69 | 221 | 7.0 | 15.0 | 0.00 | 0.03 | 0.03 | 56 | 1005.9 |
| 20260509201224 | 69 | 202 | 6.0 | 10.0 | 0.00 | 0.03 | 0.03 | 58 | 1005.8 |
| 20260509200720 | 68 | 211 | 3.0 | 12.0 | 0.00 | 0.03 | 0.03 | 61 | 1005.8 |
| 20260509200215 | 67 | 180 | 6.0 | 14.0 | 0.00 | 0.03 | 0.03 | 61 | 1006.1 |
| 20260509195711 | 68 | 188 | 6.0 | 11.0 | 0.00 | 0.03 | 0.03 | 59 | 1006.1 |
| 20260509195206 | 68 | 223 | 5.0 | 14.0 | 0.00 | 0.03 | 0.03 | 60 | 1006.2 |
| 20260509194701 | 68 | 236 | 9.0 | 13.0 | 0.00 | 0.03 | 0.03 | 62 | 1006.2 |
| 20260509194158 | 68 | 214 | 5.0 | 11.0 | 0.00 | 0.03 | 0.03 | 63 | 1006.2 |
| 20260509193654 | 67 | 207 | 6.0 | 14.0 | 0.00 | 0.03 | 0.03 | 62 | 1006.4 |
| 20260509193150 | 67 | 212 | 10.0 | 14.0 | 0.00 | 0.03 | 0.03 | 61 | 1006.4 |
| 20260509192646 | 68 | 210 | 6.0 | 12.0 | 0.00 | 0.03 | 0.03 | 60 | 1006.5 |
| 20260509192141 | 68 | 202 | 3.0 | 17.0 | 0.00 | 0.03 | 0.03 | 59 | 1006.6 |
| 20260509191635 | 67 | 215 | 10.0 | 16.0 | 0.00 | 0.03 | 0.03 | 61 | 1006.8 |
| 20260509191132 | 68 | 201 | 15.0 | 15.0 | 0.00 | 0.03 | 0.03 | 62 | 1006.9 |
| 20260509190629 | 67 | 259 | 5.0 | 9.0 | 0.00 | 0.03 | 0.03 | 60 | 1006.8 |
| 20260509190126 | 66 | 257 | 10.0 | 10.0 | 0.00 | 0.03 | 0.03 | 62 | 1006.8 |
| 20260509185624 | 65 | 184 | 7.0 | 13.0 | 0.00 | 0.03 | 0.03 | 61 | 1007.1 |
| 20260509185120 | 66 | 186 | 8.0 | 10.0 | 0.00 | 0.03 | 0.03 | 62 | 1007.2 |
| 20260509184618 | 65 | 219 | 3.0 | 14.0 | 0.00 | 0.03 | 0.03 | 63 | 1007.1 |
| 20260509184115 | 66 | 191 | 4.0 | 9.0 | 0.00 | 0.03 | 0.03 | 64 | 1006.9 |
| 20260509183610 | 65 | 182 | 6.0 | 15.0 | 0.00 | 0.03 | 0.03 | 62 | 1007.0 |
| 20260509183106 | 68 | 216 | 9.0 | 14.0 | 0.00 | 0.03 | 0.03 | 60 | 1006.9 |
| 20260509182602 | 67 | 213 | 3.0 | 9.0 | 0.00 | 0.03 | 0.03 | 63 | 1006.8 |
| 20260509182059 | 66 | 250 | 10.0 | 11.0 | 0.00 | 0.03 | 0.03 | 62 | 1006.8 |
| 20260509181558 | 66 | 216 | 5.0 | 12.0 | 0.00 | 0.03 | 0.03 | 65 | 1006.8 |
| 20260509181055 | 66 | 225 | 9.0 | 10.0 | 0.00 | 0.03 | 0.03 | 68 | 1006.9 |
| 20260509180550 | 67 | 176 | 10.0 | 10.0 | 0.00 | 0.03 | 0.03 | 63 | 1007.0 |
| 20260509180048 | 66 | 258 | 4.0 | 10.0 | 0.00 | 0.03 | 0.03 | 66 | 1007.1 |
| 20260509175543 | 65 | 224 | 4.0 | 11.0 | 0.00 | 0.03 | 0.03 | 67 | 1007.1 |
| 20260509175041 | 65 | 219 | 9.0 | 13.0 | 0.00 | 0.03 | 0.03 | 67 | 1007.0 |
| 20260509174537 | 66 | 184 | 3.0 | 6.0 | 0.00 | 0.03 | 0.03 | 68 | 1007.1 |
| 20260509174032 | 65 | 256 | 8.0 | 9.0 | 0.00 | 0.03 | 0.03 | 69 | 1007.2 |
| 20260509173527 | 65 | 219 | 7.0 | 9.0 | 0.00 | 0.03 | 0.03 | 69 | 1007.0 |
| 20260509173023 | 65 | 104 | 4.0 | 8.0 | 0.00 | 0.03 | 0.03 | 69 | 1006.8 |
| 20260509172521 | 64 | 168 | 3.0 | 10.0 | 0.00 | 0.03 | 0.03 | 69 | 1006.8 |
| 20260509172016 | 64 | 205 | 5.0 | 7.0 | 0.00 | 0.03 | 0.03 | 68 | 1007.1 |
| 20260509171512 | 64 | 195 | 7.0 | 10.0 | 0.00 | 0.03 | 0.03 | 70 | 1007.2 |
| 20260509171009 | 63 | 159 | 4.0 | 9.0 | 0.00 | 0.03 | 0.03 | 70 | 1007.1 |
| 20260509170504 | 63 | 213 | 8.0 | 9.0 | 0.00 | 0.03 | 0.03 | 72 | 1007.2 |
| 20260509170001 | 64 | 243 | 4.0 | 10.0 | 0.00 | 0.03 | 0.03 | 70 | 1007.2 |
| 20260509165459 | 63 | 222 | 3.0 | 11.0 | 0.00 | 0.03 | 0.03 | 71 | 1007.1 |
| 20260509164955 | 63 | 180 | 3.0 | 10.0 | 0.00 | 0.03 | 0.03 | 71 | 1007.2 |
| 20260509164451 | 63 | 186 | 3.0 | 8.0 | 0.00 | 0.03 | 0.03 | 75 | 1007.1 |
| 20260509163947 | 63 | 223 | 2.0 | 7.0 | 0.00 | 0.03 | 0.03 | 71 | 1007.1 |
| 20260509163445 | 63 | 193 | 5.0 | 9.0 | 0.00 | 0.03 | 0.03 | 71 | 1007.4 |
| 20260509162944 | 62 | 175 | 6.0 | 8.0 | 0.00 | 0.03 | 0.03 | 74 | 1007.3 |
| 20260509162443 | 62 | 158 | 4.0 | 6.0 | 0.00 | 0.03 | 0.03 | 76 | 1007.9 |
| 20260509161938 | 61 | 235 | 4.0 | 8.0 | 0.00 | 0.03 | 0.03 | 78 | 1007.7 |
| 20260509161435 | 62 | 250 | 3.0 | 7.0 | 0.00 | 0.03 | 0.03 | 75 | 1007.9 |
| 20260509160930 | 62 | 168 | 1.0 | 6.0 | 0.00 | 0.03 | 0.03 | 78 | 1008.1 |
| 20260509160426 | 61 | 233 | 4.0 | 9.0 | 0.00 | 0.03 | 0.03 | 78 | 1008.2 |
| 20260509155921 | 59 | 126 | 3.0 | 11.0 | 0.00 | 0.03 | 0.03 | 81 | 1008.2 |
| 20260509155419 | 60 | 188 | 2.0 | 7.0 | 0.00 | 0.03 | 0.03 | 77 | 1008.1 |
| 20260509154915 | 61 | 208 | 4.0 | 7.0 | 0.00 | 0.03 | 0.03 | 77 | 1008.1 |
| 20260509154411 | 60 | 185 | 5.0 | 7.0 | 0.00 | 0.03 | 0.03 | 79 | 1008.2 |
| 20260509153908 | 58 | 148 | 1.0 | 9.0 | 0.00 | 0.03 | 0.03 | 80 | 1008.1 |
| 20260509153405 | 58 | 330 | 0.0 | 3.0 | 0.00 | 0.03 | 0.03 | 83 | 1008.2 |
| 20260509152902 | 58 | 198 | 3.0 | 7.0 | 0.00 | 0.03 | 0.03 | 82 | 1007.9 |
| 20260509152358 | 58 | 189 | 3.0 | 5.0 | 0.00 | 0.03 | 0.03 | 84 | 1007.7 |
| 20260509151856 | 58 | 190 | 5.0 | 9.0 | 0.00 | 0.03 | 0.03 | 84 | 1008.0 |
| 20260509151351 | 59 | 178 | 5.0 | 10.0 | 0.00 | 0.03 | 0.03 | 85 | 1007.9 |
| 20260509150850 | 59 | 223 | 3.0 | 5.0 | 0.00 | 0.03 | 0.03 | 86 | 1008.0 |
| 20260509150347 | 58 | 257 | 2.0 | 7.0 | 0.00 | 0.03 | 0.03 | 87 | 1008.1 |
| 20260509145844 | 58 | 180 | 4.0 | 5.0 | 0.00 | 0.03 | 0.03 | 88 | 1008.1 |
| 20260509145339 | 58 | 217 | 8.0 | 11.0 | 0.00 | 0.03 | 0.03 | 89 | 1008.1 |
| 20260509144836 | 57 | 177 | 4.0 | 6.0 | 0.00 | 0.03 | 0.03 | 90 | 1008.1 |
| 20260509144332 | 57 | 129 | 0.0 | 5.0 | 0.00 | 0.03 | 0.03 | 91 | 1008.2 |
| 20260509143830 | 58 | 218 | 3.0 | 5.0 | 0.00 | 0.03 | 0.03 | 91 | 1008.2 |
| 20260509143327 | 57 | 213 | 2.0 | 4.0 | 0.00 | 0.03 | 0.03 | 92 | 1008.0 |
| 20260509142823 | 56 | 211 | 4.0 | 7.0 | 0.00 | 0.03 | 0.03 | 93 | 1008.0 |
| 20260509142319 | 56 | 180 | 3.0 | 5.0 | 0.00 | 0.03 | 0.03 | 94 | 1008.1 |
| 20260509141815 | 56 | 191 | 4.0 | 8.0 | 0.00 | 0.03 | 0.03 | 94 | 1008.0 |
| 20260509141312 | 56 | 199 | 3.0 | 6.0 | 0.00 | 0.03 | 0.03 | 94 | 1008.1 |
| 20260509140809 | 55 | 195 | 4.0 | 5.0 | 0.00 | 0.03 | 0.03 | 95 | 1008.0 |
| 20260509140306 | 55 | 230 | 0.0 | 3.0 | 0.00 | 0.03 | 0.03 | 96 | 1008.0 |
| 20260509135804 | 55 | 151 | 4.0 | 5.0 | 0.00 | 0.03 | 0.03 | 96 | 1008.2 |
| 20260509135301 | 55 | 275 | 3.0 | 4.0 | 0.00 | 0.03 | 0.03 | 96 | 1008.1 |
| 20260509134758 | 55 | 173 | 2.0 | 4.0 | 0.00 | 0.03 | 0.03 | 97 | 1008.1 |
| 20260509134255 | 55 | 316 | 3.0 | 3.0 | 0.00 | 0.03 | 0.03 | 97 | 1008.3 |
| 20260509133752 | 54 | 214 | 3.0 | 5.0 | 0.00 | 0.03 | 0.03 | 97 | 1008.0 |
| 20260509133249 | 54 | 159 | 3.0 | 5.0 | 0.00 | 0.03 | 0.03 | 98 | 1008.1 |
| 20260509132748 | 54 | 193 | 2.0 | 4.0 | 0.00 | 0.03 | 0.03 | 99 | 1008.1 |
| 20260509132246 | 54 | 208 | 2.0 | 5.0 | 0.00 | 0.03 | 0.03 | 99 | 1008.1 |
| 20260509131742 | 53 | 184 | 2.0 | 5.0 | 0.00 | 0.03 | 0.03 | 99 | 1008.1 |
| 20260509131239 | 53 | 199 | 2.0 | 4.0 | 0.00 | 0.03 | 0.03 | 99 | 1007.9 |
| 20260509130735 | 53 | 208 | 3.0 | 5.0 | 0.00 | 0.03 | 0.03 | 99 | 1008.1 |
| 20260509130231 | 53 | 302 | 1.0 | 6.0 | 0.00 | 0.03 | 0.03 | 99 | 1008.1 |
| 20260509125728 | 53 | 213 | 2.0 | 3.0 | 0.00 | 0.03 | 0.03 | 99 | 1008.2 |
| 20260509125225 | 53 | 215 | 3.0 | 5.0 | 0.00 | 0.03 | 0.03 | 99 | 1008.2 |
| 20260509124721 | 53 | 188 | 5.0 | 9.0 | 0.00 | 0.03 | 0.03 | 99 | 1008.3 |
| 20260509124218 | 53 | 159 | 3.0 | 5.0 | 0.00 | 0.03 | 0.03 | 99 | 1008.2 |
| 20260509123716 | 52 | 198 | 2.0 | 3.0 | 0.00 | 0.03 | 0.03 | 99 | 1008.5 |
| 20260509123213 | 52 | 218 | 2.0 | 5.0 | 0.00 | 0.03 | 0.03 | 99 | 1008.3 |
| 20260509122708 | 52 | 189 | 3.0 | 5.0 | 0.00 | 0.03 | 0.03 | 99 | 1008.3 |
| 20260509122206 | 52 | 198 | 2.0 | 4.0 | 0.00 | 0.03 | 0.03 | 99 | 1008.4 |
| 20260509121702 | 52 | 213 | 3.0 | 4.0 | 0.00 | 0.03 | 0.03 | 99 | 1008.2 |
| 20260509121200 | 52 | 180 | 2.0 | 3.0 | 0.00 | 0.03 | 0.03 | 99 | 1008.6 |
| 20260509120658 | 52 | 227 | 3.0 | 5.0 | 0.00 | 0.03 | 0.03 | 99 | 1008.3 |
| 20260509120155 | 52 | 196 | 3.0 | 6.0 | 0.00 | 0.03 | 0.03 | 99 | 1008.4 |
| 20260509115653 | 52 | 179 | 1.0 | 6.0 | 0.00 | 0.03 | 0.03 | 99 | 1008.7 |
| 20260509115150 | 52 | 213 | 3.0 | 5.0 | 0.00 | 0.03 | 0.03 | 99 | 1008.4 |
| 20260509114648 | 52 | 172 | 3.0 | 5.0 | 0.00 | 0.03 | 0.03 | 99 | 1008.4 |
| 20260509114147 | 52 | 219 | 2.0 | 4.0 | 0.00 | 0.03 | 0.03 | 99 | 1008.5 |
| 20260509113645 | 51 | 212 | 3.0 | 4.0 | 0.00 | 0.03 | 0.03 | 99 | 1008.4 |
| 20260509113142 | 51 | 134 | 1.0 | 4.0 | 0.00 | 0.03 | 0.03 | 99 | 1008.5 |
| 20260509112638 | 51 | 245 | 0.0 | 3.0 | 0.00 | 0.03 | 0.03 | 99 | 1008.4 |
| 20260509112136 | 51 | 189 | 3.0 | 4.0 | 0.00 | 0.03 | 0.03 | 99 | 1008.4 |
| 20260509111632 | 51 | 223 | 4.0 | 4.0 | 0.00 | 0.03 | 0.03 | 99 | 1008.3 |
| 20260509111129 | 51 | 215 | 2.0 | 6.0 | 0.00 | 0.03 | 0.03 | 99 | 1008.2 |
| 20260509110626 | 51 | 211 | 3.0 | 4.0 | 0.00 | 0.03 | 0.03 | 99 | 1008.1 |
| 20260509110124 | 51 | 189 | 4.0 | 5.0 | 0.00 | 0.03 | 0.03 | 99 | 1008.2 |
| 20260509105622 | 51 | 199 | 2.0 | 3.0 | 0.00 | 0.03 | 0.03 | 99 | 1008.2 |
| 20260509105119 | 51 | 187 | 2.0 | 5.0 | 0.00 | 0.03 | 0.03 | 99 | 1008.3 |
| 20260509104616 | 51 | 186 | 2.0 | 3.0 | 0.00 | 0.03 | 0.03 | 99 | 1008.3 |
| 20260509104112 | 51 | 209 | 2.0 | 3.0 | 0.00 | 0.03 | 0.03 | 99 | 1008.2 |
| 20260509103610 | 51 | 113 | 0.0 | 3.0 | 0.00 | 0.03 | 0.03 | 99 | 1008.2 |
| 20260509103108 | 51 | 273 | 0.0 | 3.0 | 0.00 | 0.03 | 0.03 | 99 | 1008.3 |
| 20260509102605 | 51 | 190 | 3.0 | 4.0 | 0.00 | 0.03 | 0.03 | 99 | 1008.4 |
| 20260509102102 | 51 | 219 | 2.0 | 3.0 | 0.00 | 0.03 | 0.03 | 99 | 1008.2 |
| 20260509101558 | 51 | 161 | 3.0 | 4.0 | 0.00 | 0.03 | 0.03 | 99 | 1008.2 |
| 20260509101055 | 51 | 219 | 2.0 | 3.0 | 0.00 | 0.03 | 0.03 | 99 | 1008.2 |
| 20260509100552 | 51 | 243 | 2.0 | 4.0 | 0.00 | 0.03 | 0.03 | 99 | 1008.2 |
| 20260509100050 | 51 | 160 | 2.0 | 3.0 | 0.00 | 0.03 | 0.03 | 99 | 1008.3 |
| 20260509095546 | 51 | 214 | 2.0 | 3.0 | 0.00 | 0.03 | 0.03 | 99 | 1008.1 |
| 20260509095044 | 51 | 176 | 3.0 | 4.0 | 0.00 | 0.03 | 0.03 | 99 | 1008.2 |
| 20260509094540 | 51 | 196 | 0.0 | 3.0 | 0.00 | 0.03 | 0.03 | 99 | 1008.3 |
| 20260509094037 | 51 | 222 | 4.0 | 6.0 | 0.00 | 0.03 | 0.03 | 99 | 1008.4 |
| 20260509093536 | 51 | 187 | 3.0 | 4.0 | 0.00 | 0.03 | 0.03 | 99 | 1008.5 |
| 20260509093033 | 51 | 211 | 0.0 | 2.0 | 0.00 | 0.03 | 0.03 | 99 | 1008.4 |
| 20260509092530 | 51 | 176 | 3.0 | 3.0 | 0.00 | 0.03 | 0.03 | 99 | 1008.4 |
| 20260509092029 | 51 | 189 | 3.0 | 3.0 | 0.00 | 0.03 | 0.03 | 99 | 1008.5 |
| 20260509091526 | 51 | 188 | 3.0 | 3.0 | 0.00 | 0.03 | 0.03 | 99 | 1008.7 |
| 20260509091022 | 51 | 239 | 3.0 | 4.0 | 0.00 | 0.03 | 0.03 | 99 | 1008.7 |
| 20260509090520 | 51 | 217 | 2.0 | 3.0 | 0.00 | 0.03 | 0.03 | 99 | 1008.6 |
| 20260509090018 | 51 | 197 | 1.0 | 3.0 | 0.00 | 0.03 | 0.03 | 99 | 1008.7 |
| 20260509085514 | 51 | 194 | 2.0 | 3.0 | 0.00 | 0.03 | 0.03 | 99 | 1008.6 |
| 20260509085010 | 51 | 218 | 1.0 | 5.0 | 0.00 | 0.03 | 0.03 | 99 | 1008.8 |
| 20260509084508 | 51 | 214 | 2.0 | 4.0 | 0.00 | 0.03 | 0.03 | 99 | 1008.8 |
| 20260509084005 | 51 | 209 | 3.0 | 5.0 | 0.00 | 0.03 | 0.03 | 99 | 1008.9 |
| 20260509083502 | 51 | 235 | 1.0 | 5.0 | 0.00 | 0.03 | 0.03 | 99 | 1008.9 |
| 20260509082958 | 51 | 199 | 1.0 | 3.0 | 0.00 | 0.03 | 0.03 | 99 | 1009.0 |
| 20260509082456 | 51 | 243 | 3.0 | 5.0 | 0.00 | 0.03 | 0.03 | 99 | 1008.9 |
| 20260509081953 | 51 | 240 | 1.0 | 3.0 | 0.00 | 0.03 | 0.03 | 99 | 1008.8 |
| 20260509081450 | 51 | 192 | 1.0 | 3.0 | 0.00 | 0.03 | 0.03 | 99 | 1008.8 |
| 20260509080947 | 51 | 201 | 3.0 | 5.0 | 0.00 | 0.03 | 0.03 | 99 | 1008.8 |
| 20260509080445 | 51 | 210 | 3.0 | 6.0 | 0.00 | 0.03 | 0.03 | 99 | 1008.9 |
| 20260509075943 | 51 | 191 | 3.0 | 3.0 | 0.00 | 0.03 | 0.03 | 99 | 1008.8 |
| 20260509075439 | 51 | 172 | 2.0 | 4.0 | 0.00 | 0.03 | 0.03 | 99 | 1008.9 |
| 20260509074938 | 51 | 182 | 1.0 | 5.0 | 0.00 | 0.03 | 0.03 | 99 | 1008.9 |
| 20260509074435 | 51 | 198 | 3.0 | 4.0 | 0.00 | 0.03 | 0.03 | 99 | 1009.0 |
| 20260509073931 | 51 | 179 | 2.0 | 3.0 | 0.00 | 0.03 | 0.03 | 99 | 1009.0 |
| 20260509073427 | 51 | 240 | 1.0 | 2.0 | 0.00 | 0.03 | 0.03 | 99 | 1009.0 |
| 20260509072918 | 51 | 161 | 3.0 | 3.0 | 0.00 | 0.03 | 0.03 | 99 | 1009.1 |
| 20260509072415 | 51 | 213 | 3.0 | 4.0 | 0.00 | 0.03 | 0.03 | 99 | 1009.3 |
| 20260509071911 | 51 | 213 | 2.0 | 3.0 | 0.00 | 0.03 | 0.03 | 99 | 1009.2 |
| 20260509071409 | 51 | 204 | 1.0 | 5.0 | 0.00 | 0.03 | 0.03 | 99 | 1009.1 |
| 20260509070907 | 51 | 147 | 1.0 | 3.0 | 0.00 | 0.03 | 0.03 | 99 | 1009.1 |
| 20260509070403 | 51 | 203 | 2.0 | 3.0 | 0.00 | 0.03 | 0.03 | 99 | 1009.0 |
| 20260509065858 | 51 | 202 | 1.0 | 3.0 | 0.00 | 0.03 | 0.03 | 99 | 1009.2 |
| 20260509065355 | 51 | 160 | 0.0 | 2.0 | 0.00 | 0.03 | 0.03 | 99 | 1009.2 |
| 20260509064851 | 51 | 211 | 2.0 | 4.0 | 0.00 | 0.03 | 0.03 | 99 | 1009.3 |
| 20260509064349 | 51 | 207 | 1.0 | 3.0 | 0.00 | 0.03 | 0.03 | 99 | 1009.3 |
| 20260509063846 | 50 | 225 | 4.0 | 4.0 | 0.00 | 0.03 | 0.03 | 99 | 1009.4 |
| 20260509063342 | 50 | 180 | 3.0 | 5.0 | 0.00 | 0.03 | 0.03 | 99 | 1009.5 |
| 20260509062839 | 50 | 203 | 2.0 | 3.0 | 0.00 | 0.03 | 0.03 | 99 | 1009.4 |
| 20260509062337 | 50 | 209 | 3.0 | 3.0 | 0.00 | 0.03 | 0.03 | 99 | 1009.4 |
| 20260509061833 | 50 | 183 | 3.0 | 4.0 | 0.00 | 0.03 | 0.03 | 99 | 1009.5 |
| 20260509061332 | 50 | 194 | 3.0 | 7.0 | 0.00 | 0.03 | 0.03 | 99 | 1009.7 |
| 20260509060828 | 50 | 146 | 3.0 | 5.0 | 0.00 | 0.03 | 0.03 | 99 | 1009.6 |
| 20260509060326 | 50 | 189 | 3.0 | 7.0 | 0.00 | 0.03 | 0.03 | 99 | 1009.7 |
| 20260509055821 | 50 | 213 | 3.0 | 5.0 | 0.00 | 0.03 | 0.03 | 99 | 1009.9 |
| 20260509055316 | 50 | 202 | 2.0 | 4.0 | 0.00 | 0.03 | 0.03 | 99 | 1009.8 |
| 20260509054814 | 50 | 188 | 0.0 | 3.0 | 0.00 | 0.03 | 0.03 | 99 | 1009.7 |
| 20260509054310 | 50 | 171 | 2.0 | 5.0 | 0.00 | 0.03 | 0.03 | 99 | 1009.8 |
| 20260509053809 | 50 | 235 | 2.0 | 4.0 | 0.02 | 0.03 | 0.03 | 99 | 1009.8 |
| 20260509053305 | 50 | 207 | 2.0 | 3.0 | 0.02 | 0.03 | 0.03 | 99 | 1009.7 |
| 20260509052803 | 50 | 184 | 2.0 | 4.0 | 0.00 | 0.03 | 0.03 | 99 | 1009.8 |
| 20260509052301 | 50 | 199 | 3.0 | 5.0 | 0.02 | 0.03 | 0.03 | 99 | 1009.9 |
| 20260509051758 | 50 | 223 | 1.0 | 5.0 | 0.00 | 0.02 | 0.02 | 99 | 1010.0 |
| 20260509051256 | 50 | 215 | 2.0 | 4.0 | 0.00 | 0.02 | 0.02 | 99 | 1010.0 |
| 20260509050753 | 50 | 216 | 3.0 | 6.0 | 0.02 | 0.02 | 0.02 | 99 | 1010.1 |
| 20260509050249 | 50 | 201 | 3.0 | 4.0 | 0.02 | 0.02 | 0.02 | 99 | 1010.0 |
| 20260509045747 | 50 | 217 | 1.0 | 3.0 | 0.00 | 0.02 | 0.02 | 99 | 1010.1 |
| 20260509045243 | 50 | 207 | 2.0 | 5.0 | 0.00 | 0.02 | 0.02 | 99 | 1010.2 |
| 20260509044741 | 50 | 171 | 2.0 | 4.0 | 0.00 | 0.02 | 0.02 | 99 | 1010.2 |
| 20260509044238 | 50 | 99 | 1.0 | 4.0 | 0.00 | 0.02 | 0.02 | 99 | 1010.2 |
| 20260509043734 | 50 | 193 | 3.0 | 5.0 | 0.02 | 0.02 | 0.02 | 99 | 1010.3 |